Goshen, IN

1:16 AM EST on December 11, 2017 (GMT -0500)
Goshen Municipal

Weather History for KGSH - April, 2014

Change the Weather History Date:

Wednesday, April 16, 2014

  Actual Average Record
Temperature  
Mean Temperature 36 °F -  
Max Temperature 50 °F 62 °F 84 °F (2002)
Min Temperature 25 °F 40 °F 25 °F (1962)
Degree Days  
Heating Degree Days 28    
Moisture  
Dew Point 19 °F    
Average Humidity 50    
Maximum Humidity 72    
Minimum Humidity 33    
Precipitation  
Precipitation 0.00 in - - ()
Sea Level Pressure  
Sea Level Pressure 30.32 in    
Wind  
Wind Speed 8 mph (SE)    
Max Wind Speed 20 mph    
Max Gust Speed 28 mph    
Visibility 10 miles    
Events      
Averages and records for this station are not official NWS values.
T = Trace of Precipitation, MM = Missing Value Source: NWS Daily Summary

Daily Weather History Graph

Daily Weather History Graph

Search for Another Location

Airport or City:

Trip Planner

Search our weather history database for the weather conditions in past years. The results will help you decide how hot, cold, wet, or windy it might be!

Date:

Astronomy

Apr. 16, 2014 Rise Set
Actual Time 7:01 AM EDT 8:24 PM EDT
Civil Twilight 6:32 AM EDT 8:53 PM EDT
Nautical Twilight 5:58 AM EDT 9:28 PM EDT
Astronomical Twilight 5:21 AM EDT 10:05 PM EDT
Moon 10:09 PM EDT (4/16) 7:47 AM EDT (4/16)
Length of Visible Light 14h 20m
Length of Day
13h 23m
Full, 98% of the Moon is Illuminated
Apr 16
Full
Apr 22
Last Quarter
Apr 29
New
May 6
First Quarter
May 14
Full

Hourly Weather History & Observations

Time (EDT) Temp. Windchill Dew Point Humidity Pressure Visibility Wind Dir Wind Speed Gust Speed Precip Events Conditions
12:53 AM 25.0 °F - 17.1 °F 72% 30.27 in 10.0 mi Calm Calm - N/A   Clear
1:53 AM 25.0 °F 19.3 °F 16.0 °F 69% 30.28 in 10.0 mi SE 4.6 mph - N/A   Clear
2:53 AM 26.1 °F 19.4 °F 15.1 °F 63% 30.29 in 10.0 mi SE 5.8 mph - N/A   Clear
3:53 AM 26.1 °F 21.9 °F 16.0 °F 66% 30.31 in 10.0 mi SE 3.5 mph - N/A   Clear
4:53 AM 26.1 °F - 16.0 °F 66% 30.33 in 10.0 mi Calm Calm - N/A   Clear
5:53 AM 25.0 °F 18.1 °F 15.1 °F 66% 30.35 in 10.0 mi SE 5.8 mph - N/A   Clear
6:53 AM 25.0 °F 16.3 °F 16.0 °F 69% 30.36 in 10.0 mi SE 8.1 mph - N/A   Clear
7:53 AM 28.0 °F 20.0 °F 17.1 °F 63% 30.38 in 10.0 mi SSE 8.1 mph - N/A   Clear
8:53 AM 32.0 °F 22.1 °F 15.1 °F 50% 30.40 in 10.0 mi SSE 13.8 mph - N/A   Clear
9:53 AM 36.0 °F 28.0 °F 16.0 °F 44% 30.42 in 10.0 mi SSE 11.5 mph - N/A   Clear
10:53 AM 39.0 °F 31.4 °F 17.1 °F 41% 30.41 in 10.0 mi SSE 12.7 mph - N/A   Clear
11:53 AM 41.0 °F 32.8 °F 18.0 °F 40% 30.41 in 10.0 mi SSE 16.1 mph - N/A   Clear
12:53 PM 43.0 °F 36.0 °F 19.0 °F 38% 30.39 in 10.0 mi South 13.8 mph - N/A   Clear
2:53 PM 46.9 °F - 19.0 °F 33% 30.35 in 10.0 mi SSE 15.0 mph 25.3 mph N/A   Clear
3:53 PM 48.0 °F - 19.9 °F 33% 30.32 in 10.0 mi SSE 18.4 mph 26.5 mph N/A   Clear
4:53 PM 48.9 °F - 21.0 °F 33% 30.29 in 10.0 mi SSE 15.0 mph 23.0 mph N/A   Clear
5:53 PM 48.9 °F - 21.0 °F 33% 30.28 in 10.0 mi SE 19.6 mph 27.6 mph N/A   Clear
6:53 PM 48.0 °F - 21.0 °F 34% 30.27 in 10.0 mi SE 16.1 mph - N/A   Clear
7:53 PM 46.9 °F - 23.0 °F 39% 30.26 in 10.0 mi SE 15.0 mph - N/A   Clear
8:53 PM 44.1 °F 38.6 °F 23.0 °F 43% 30.26 in 10.0 mi SE 10.4 mph - N/A   Clear
9:53 PM 41.0 °F 35.2 °F 25.0 °F 53% 30.27 in 10.0 mi ESE 9.2 mph - N/A   Clear
10:53 PM 42.1 °F 36.1 °F 26.1 °F 53% 30.27 in 10.0 mi ESE 10.4 mph - N/A   Clear
11:53 PM 41.0 °F 33.5 °F 27.0 °F 57% 30.27 in 10.0 mi SE 13.8 mph - N/A   Clear